• In Portugal
  • List of Countries
  • For 7 days
  • Water Temperature
  • Satellite Maps
  • Weather Map
  • Weather Widgets
  • user-avatar
    Login

    Hourly Weather Dalandzadgad

    Today, 19 February, Monday

    Time Temperature Precipitation Wind Pressure Humidity
    00:00 -14°C° 0 mm 3 mps 637 mmHg 53%
    01:00 -15°C° 0 mm 3 mps 637 mmHg 57%
    02:00 -15°C° 0 mm 2 mps 637 mmHg 59%
    03:00 -15°C° 0 mm 2 mps 637 mmHg 61%
    04:00 -13°C° 0 mm 1 mps 637 mmHg 63%
    05:00 -13°C° 0 mm 1 mps 637 mmHg 64%
    06:00 -14°C° 0 mm 1 mps 637 mmHg 65%
    07:00 -16°C° 0 mm 2 mps 638 mmHg 69%
    08:00 -15°C° 0 mm 2 mps 638 mmHg 61%
    09:00 -12°C° 0 mm 1 mps 638 mmHg 53%
    10:00 -11°C° 0 mm 1 mps 638 mmHg 45%
    11:00 -10°C° 0 mm 1 mps 638 mmHg 40%
    12:00 -10°C° 0 mm 1 mps 638 mmHg 34%
    13:00 -9°C° 0 mm 1 mps 638 mmHg 28%
    14:00 -8°C° 0 mm 1 mps 638 mmHg 27%
    15:00 -9°C° 0 mm 2 mps 638 mmHg 25%
    16:00 -8°C° 0 mm 2 mps 638 mmHg 23%
    17:00 -9°C° 0 mm 2 mps 638 mmHg 23%
    18:00 -9°C° 0 mm 2 mps 638 mmHg 23%
    19:00 -9°C° 0 mm 2 mps 638 mmHg 23%
    20:00 -10°C° 0 mm 2 mps 638 mmHg 24%
    21:00 -10°C° 0 mm 2 mps 638 mmHg 25%
    22:00 -12°C° 0 mm 2 mps 638 mmHg 26%
    23:00 -12°C° 0 mm 2 mps 637 mmHg 26%

    Tomorrow, 20 February, Tuesday

    Time Temperature Precipitation Wind Pressure Humidity
    00:00 -12°C° 0 mm 2 mps 637 mmHg 26%
    01:00 -13°C° 0 mm 2 mps 637 mmHg 27%
    02:00 -13°C° 0 mm 2 mps 637 mmHg 27%
    03:00 -13°C° 0 mm 2 mps 637 mmHg 27%
    04:00 -14°C° 0 mm 2 mps 637 mmHg 28%
    05:00 -14°C° 0 mm 2 mps 637 mmHg 29%
    06:00 -14°C° 0 mm 2 mps 637 mmHg 30%
    07:00 -15°C° 0 mm 2 mps 637 mmHg 30%
    08:00 -14°C° 0 mm 2 mps 638 mmHg 28%
    09:00 -13°C° 0 mm 2 mps 638 mmHg 25%
    10:00 -13°C° 0 mm 3 mps 639 mmHg 22%
    11:00 -12°C° 0 mm 3 mps 639 mmHg 21%
    12:00 -10°C° 0 mm 3 mps 639 mmHg 20%
    13:00 -9°C° 0 mm 3 mps 638 mmHg 18%
    14:00 -10°C° 0 mm 4 mps 638 mmHg 18%
    15:00 -10°C° 0 mm 4 mps 638 mmHg 18%
    16:00 -10°C° 0 mm 4 mps 638 mmHg 18%
    17:00 -11°C° 0 mm 4 mps 638 mmHg 19%
    18:00 -11°C° 0 mm 4 mps 638 mmHg 20%
    19:00 -12°C° 0 mm 3 mps 638 mmHg 20%
    20:00 -12°C° 0 mm 3 mps 638 mmHg 21%
    21:00 -13°C° 0 mm 3 mps 638 mmHg 22%
    22:00 -12°C° 0 mm 2 mps 638 mmHg 23%
    23:00 -13°C° 0 mm 2 mps 638 mmHg 25%

    Day after tomorrow, 21 February, Wednesday

    Time Temperature Precipitation Wind Pressure Humidity
    00:00 -13°C° 0 mm 2 mps 637 mmHg 26%
    01:00 -13°C° 0 mm 2 mps 637 mmHg 27%
    02:00 -14°C° 0 mm 2 mps 637 mmHg 29%
    03:00 -14°C° 0 mm 2 mps 637 mmHg 30%
    04:00 -15°C° 0 mm 3 mps 636 mmHg 32%
    05:00 -15°C° 0 mm 2 mps 636 mmHg 33%
    06:00 -15°C° 0 mm 2 mps 636 mmHg 35%
    07:00 -15°C° 0 mm 2 mps 636 mmHg 36%
    08:00 -15°C° 0 mm 3 mps 636 mmHg 34%
    09:00 -14°C° 0 mm 3 mps 637 mmHg 31%
    10:00 -13°C° 0 mm 3 mps 637 mmHg 29%
    11:00 -12°C° 0 mm 4 mps 637 mmHg 27%
    12:00 -11°C° 0 mm 4 mps 637 mmHg 24%
    13:00 -11°C° 0 mm 5 mps 636 mmHg 22%
    14:00 -11°C° 0 mm 5 mps 636 mmHg 22%
    15:00 -11°C° 0 mm 6 mps 635 mmHg 21%
    16:00 -12°C° 0 mm 7 mps 635 mmHg 21%
    17:00 -11°C° 0 mm 6 mps 635 mmHg 22%
    18:00 -11°C° 0 mm 6 mps 635 mmHg 23%
    19:00 -12°C° 0 mm 6 mps 635 mmHg 24%
    20:00 -12°C° 0 mm 6 mps 635 mmHg 25%
    21:00 -13°C° 0 mm 5 mps 635 mmHg 26%
    22:00 -13°C° 0 mm 5 mps 634 mmHg 28%
    23:00 -13°C° 0 mm 5 mps 634 mmHg 29%

    22 February, Thursday

    Time Temperature Precipitation Wind Pressure Humidity
    00:00 -14°C° 0 mm 4 mps 634 mmHg 30%
    01:00 -14°C° 0 mm 4 mps 634 mmHg 31%
    02:00 -14°C° 0 mm 4 mps 633 mmHg 32%
    03:00 -13°C° 0 mm 3 mps 633 mmHg 34%
    04:00 -14°C° 0 mm 3 mps 633 mmHg 35%
    05:00 -14°C° 0 mm 3 mps 633 mmHg 35%
    06:00 -14°C° 0 mm 3 mps 633 mmHg 35%
    07:00 -14°C° 0 mm 3 mps 633 mmHg 35%
    08:00 -12°C° 0 mm 3 mps 633 mmHg 32%
    09:00 -11°C° 0 mm 4 mps 633 mmHg 28%
    10:00 -9°C° 0 mm 4 mps 633 mmHg 25%
    11:00 -8°C° 0 mm 5 mps 633 mmHg 23%
    12:00 -7°C° 0 mm 5 mps 632 mmHg 21%
    13:00 -5°C° 0 mm 6 mps 632 mmHg 20%
    14:00 -5°C° 0 mm 6 mps 632 mmHg 20%
    15:00 -5°C° 0 mm 6 mps 631 mmHg 19%
    16:00 -4°C° 0 mm 7 mps 631 mmHg 19%
    17:00 -5°C° 0 mm 6 mps 631 mmHg 20%
    18:00 -6°C° 0 mm 5 mps 631 mmHg 21%
    19:00 -7°C° 0 mm 4 mps 631 mmHg 21%
    20:00 -7°C° 0 mm 4 mps 631 mmHg 22%
    21:00 -7°C° 0 mm 4 mps 631 mmHg 23%
    22:00 -8°C° 0 mm 4 mps 631 mmHg 25%
    23:00 -7°C° 0 mm 3 mps 631 mmHg 25%

    23 February, Friday

    Time Temperature Precipitation Wind Pressure Humidity
    00:00 -7°C° 0 mm 3 mps 631 mmHg 26%
    01:00 -8°C° 0 mm 3 mps 630 mmHg 26%
    02:00 -8°C° 0 mm 3 mps 630 mmHg 27%
    03:00 -8°C° 0 mm 3 mps 630 mmHg 28%
    04:00 -7°C° 0 mm 2 mps 630 mmHg 29%
    05:00 -8°C° 0 mm 2 mps 631 mmHg 30%
    06:00 -8°C° 0 mm 2 mps 631 mmHg 32%
    07:00 -7°C° 0 mm 1 mps 631 mmHg 33%
    08:00 -6°C° 0 mm 1 mps 632 mmHg 30%
    09:00 -4°C° 0 mm 1 mps 633 mmHg 28%
    10:00 -3°C° 0 mm 1 mps 633 mmHg 25%
    11:00 -2°C° 0 mm 1 mps 633 mmHg 24%
    12:00 -1°C° 0 mm 1 mps 633 mmHg 22%
    13:00 0°C° 0 mm 1 mps 633 mmHg 21%
    14:00 0°C° 0 mm 1 mps 633 mmHg 21%
    15:00 0°C° 0 mm 1 mps 633 mmHg 22%
    16:00 0°C° 0 mm 1 mps 633 mmHg 22%
    17:00 0°C° 0 mm 1 mps 633 mmHg 23%
    18:00 -3°C° 0 mm 2 mps 633 mmHg 24%
    19:00 -4°C° 0 mm 2 mps 633 mmHg 25%
    20:00 -4°C° 0 mm 2 mps 633 mmHg 25%
    21:00 -4°C° 0 mm 2 mps 633 mmHg 26%
    22:00 -4°C° 0 mm 2 mps 633 mmHg 26%
    23:00 -5°C° 0 mm 2 mps 633 mmHg 28%

    24 February, Saturday

    Time Temperature Precipitation Wind Pressure Humidity
    00:00 -5°C° 0 mm 2 mps 633 mmHg 30%
    01:00 -5°C° 0 mm 2 mps 633 mmHg 31%
    02:00 -7°C° 0 mm 3 mps 633 mmHg 35%
    03:00 -7°C° 0 mm 3 mps 633 mmHg 39%
    04:00 -8°C° 0 mm 4 mps 633 mmHg 43%
    05:00 -9°C° 0 mm 4 mps 633 mmHg 47%
    06:00 -8°C° 0 mm 3 mps 633 mmHg 50%
    07:00 -8°C° 0 mm 3 mps 634 mmHg 54%
    08:00 -7°C° 0 mm 3 mps 634 mmHg 49%
    09:00 -7°C° 0 mm 4 mps 635 mmHg 44%
    10:00 -4°C° 0 mm 4 mps 635 mmHg 39%
    11:00 -3°C° 0 mm 4 mps 635 mmHg 36%
    12:00 -2°C° 0 mm 4 mps 635 mmHg 32%
    13:00 0°C° 0 mm 3 mps 635 mmHg 29%
    14:00 0°C° 0 mm 3 mps 635 mmHg 28%
    15:00 -1°C° 0 mm 4 mps 635 mmHg 27%
    16:00 0°C° 0 mm 4 mps 634 mmHg 26%
    17:00 -1°C° 0 mm 4 mps 634 mmHg 30%
    18:00 -2°C° 0 mm 4 mps 634 mmHg 34%
    19:00 -3°C° 0 mm 4 mps 634 mmHg 37%
    20:00 -5°C° 0 mm 5 mps 634 mmHg 40%
    21:00 -5°C° 0 mm 5 mps 634 mmHg 42%
    22:00 -5°C° 0 mm 6 mps 634 mmHg 44%
    23:00 -5°C° 0 mm 6 mps 633 mmHg 45%
    Show more